Retour au catalogue

COSMOS 1275 DEB

ActifPO
NORAD 12670·DEBRIS·🇷🇺 Russia

Lancé Jun 4, 1981 depuis Plesetsk Cosmodrome

Loading…

Prochains Passages (prochaines 24 heures)

TLE

FraisSource: Space-Track

Époque: Sep 14, 2026, 15:52 UTC

1 12670U 81053AA  26257.66120138  .00000397  00000-0  35581-3 0  9996
2 12670  82.9409 137.5353 0054275 171.7993 217.2786 13.81207259266125

Suivez COSMOS 1275 DEB en temps réel avec AllMySat

Download on the App Store